Time,TemperatureF,DewpointF,PressureIn,WindDirection,WindDirectionDegrees,WindSpeedMPH,WindSpeedGustMPH,Humidity,HourlyPrecipIn,Conditions,Clouds,dailyrainin,SoftwareType,DateUTC
2013-04-08 00:00:00,61.6,42.8,30.08,SE,135,2.2,2.2,50,0.00,,,0.00,WUHU216HW,2013-04-08 04:00:00,
2013-04-08 00:04:00,61.6,42.8,30.08,SE,135,1.3,2.2,50,0.00,,,0.00,WUHU216HW,2013-04-08 04:04:00,
2013-04-08 00:09:00,61.2,42.9,30.07,ESE,113,1.8,2.9,51,0.00,,,0.00,WUHU216HW,2013-04-08 04:09:00,
2013-04-08 00:14:00,61.0,42.8,30.07,ESE,113,1.8,2.9,51,0.00,,,0.00,WUHU216HW,2013-04-08 04:14:00,
2013-04-08 00:19:00,60.8,42.6,30.07,SE,135,2.7,2.7,51,0.00,,,0.00,WUHU216HW,2013-04-08 04:19:00,
2013-04-08 00:24:00,60.7,42.5,30.07,SE,135,2.0,2.7,51,0.00,,,0.00,WUHU216HW,2013-04-08 04:24:00,
2013-04-08 00:30:00,60.5,42.8,30.07,ESE,113,2.9,2.9,52,0.00,,,0.00,WUHU216HW,2013-04-08 04:30:00,
2013-04-08 00:35:00,60.3,42.6,30.07,ESE,113,3.4,3.4,52,0.00,,,0.00,WUHU216HW,2013-04-08 04:35:00,
2013-04-08 00:40:00,60.3,42.6,30.06,ESE,113,2.5,3.4,52,0.00,,,0.00,WUHU216HW,2013-04-08 04:40:00,
2013-04-08 00:45:00,60.1,42.4,30.06,SE,135,2.5,3.4,52,0.00,,,0.00,WUHU216HW,2013-04-08 04:45:00,
2013-04-08 00:50:00,60.1,42.9,30.06,SE,135,1.8,2.5,53,0.00,,,0.00,WUHU216HW,2013-04-08 04:50:00,
2013-04-08 00:55:00,60.1,42.9,30.06,SE,135,1.8,2.5,53,0.00,,,0.00,WUHU216HW,2013-04-08 04:55:00,
2013-04-08 01:00:00,60.1,42.9,30.06,SE,135,2.5,2.9,53,0.00,,,0.00,WUHU216HW,2013-04-08 05:00:00,
2013-04-08 01:05:00,60.1,42.9,30.07,East,90,1.6,2.9,53,0.00,,,0.00,WUHU216HW,2013-04-08 05:05:00,
2013-04-08 01:10:00,59.9,42.8,30.06,ESE,113,2.0,2.9,53,0.00,,,0.00,WUHU216HW,2013-04-08 05:10:00,
2013-04-08 01:15:00,59.8,42.6,30.06,SE,135,2.5,2.7,53,0.00,,,0.00,WUHU216HW,2013-04-08 05:15:00,
2013-04-08 01:20:00,59.8,42.6,30.06,ESE,113,2.7,2.7,53,0.00,,,0.00,WUHU216HW,2013-04-08 05:20:00,
2013-04-08 01:25:00,59.8,42.6,30.06,ESE,113,2.5,2.7,53,0.00,,,0.00,WUHU216HW,2013-04-08 05:25:00,
2013-04-08 01:30:00,59.6,42.8,30.06,SE,135,2.5,2.7,54,0.00,,,0.00,WUHU216HW,2013-04-08 05:30:00,
2013-04-08 01:35:00,59.6,42.8,30.06,ESE,113,2.9,3.1,54,0.00,,,0.00,WUHU216HW,2013-04-08 05:35:00,
2013-04-08 01:40:00,59.4,42.8,30.06,ESE,113,2.7,3.1,54,0.00,,,0.00,WUHU216HW,2013-04-08 05:40:00,
2013-04-08 01:45:00,59.4,42.8,30.06,East,90,2.5,3.6,54,0.00,,,0.00,WUHU216HW,2013-04-08 05:45:00,
2013-04-08 01:50:00,59.2,43.0,30.06,ESE,113,1.1,3.6,55,0.00,,,0.00,WUHU216HW,2013-04-08 05:50:00,
2013-04-08 01:55:00,59.0,42.8,30.06,ESE,113,2.5,2.7,55,0.00,,,0.00,WUHU216HW,2013-04-08 05:55:00,
2013-04-08 02:00:00,58.9,42.7,30.06,ESE,113,2.5,3.4,55,0.00,,,0.00,WUHU216HW,2013-04-08 06:00:00,
2013-04-08 02:06:00,58.7,42.5,30.06,ESE,113,2.5,3.4,55,0.00,,,0.00,WUHU216HW,2013-04-08 06:06:00,
2013-04-08 02:11:00,58.7,43.0,30.06,ESE,113,2.0,2.7,56,0.00,,,0.00,WUHU216HW,2013-04-08 06:11:00,
2013-04-08 02:16:00,58.5,42.9,30.06,ESE,113,1.8,2.7,56,0.00,,,0.00,WUHU216HW,2013-04-08 06:16:00,
2013-04-08 02:21:00,58.3,42.7,30.06,ESE,113,1.8,2.5,56,0.00,,,0.00,WUHU216HW,2013-04-08 06:21:00,
2013-04-08 02:26:00,58.1,42.5,30.06,ESE,113,2.5,2.7,56,0.00,,,0.00,WUHU216HW,2013-04-08 06:26:00,
2013-04-08 02:31:00,58.1,42.9,30.06,ESE,113,2.5,2.7,57,0.00,,,0.00,WUHU216HW,2013-04-08 06:31:00,
2013-04-08 02:36:00,58.0,42.9,30.05,SE,135,3.1,3.4,57,0.00,,,0.00,WUHU216HW,2013-04-08 06:36:00,
2013-04-08 02:41:00,58.0,42.9,30.05,ESE,113,2.2,3.4,57,0.00,,,0.00,WUHU216HW,2013-04-08 06:41:00,
2013-04-08 02:46:00,58.0,42.9,30.05,ESE,113,1.8,3.4,57,0.00,,,0.00,WUHU216HW,2013-04-08 06:46:00,
2013-04-08 02:51:00,58.0,42.9,30.05,ESE,113,3.4,3.4,57,0.00,,,0.00,WUHU216HW,2013-04-08 06:51:00,
2013-04-08 02:56:00,58.0,42.9,30.05,ESE,113,2.2,4.3,57,0.00,,,0.00,WUHU216HW,2013-04-08 06:56:00,
2013-04-08 03:01:00,58.0,42.9,30.05,ESE,113,1.6,4.3,57,0.00,,,0.00,WUHU216HW,2013-04-08 07:01:00,
2013-04-08 03:07:00,57.8,42.7,30.05,SE,135,2.0,2.5,57,0.00,,,0.00,WUHU216HW,2013-04-08 07:07:00,
2013-04-08 03:12:00,57.6,42.0,30.05,ESE,113,1.3,2.5,56,0.00,,,0.00,WUHU216HW,2013-04-08 07:12:00,
2013-04-08 03:17:00,57.6,42.0,30.05,ESE,113,1.8,2.2,56,0.00,,,0.00,WUHU216HW,2013-04-08 07:17:00,
2013-04-08 03:22:00,57.4,42.3,30.05,ESE,113,1.8,1.8,57,0.00,,,0.00,WUHU216HW,2013-04-08 07:22:00,
2013-04-08 03:27:00,57.2,42.1,30.05,SE,135,1.8,1.8,57,0.00,,,0.00,WUHU216HW,2013-04-08 07:27:00,
2013-04-08 03:32:00,57.2,42.1,30.05,East,90,0.9,1.8,57,0.00,,,0.00,WUHU216HW,2013-04-08 07:32:00,
2013-04-08 03:37:00,57.2,42.1,30.05,East,90,0.9,1.3,57,0.00,,,0.00,WUHU216HW,2013-04-08 07:37:00,
2013-04-08 03:42:00,57.1,41.9,30.05,East,90,0.0,1.1,57,0.00,,,0.00,WUHU216HW,2013-04-08 07:42:00,
2013-04-08 03:47:00,57.1,41.9,30.05,East,90,0.0,0.9,57,0.00,,,0.00,WUHU216HW,2013-04-08 07:47:00,
2013-04-08 03:52:00,56.9,41.8,30.05,East,90,0.0,0.0,57,0.00,,,0.00,WUHU216HW,2013-04-08 07:52:00,
2013-04-08 03:57:00,56.7,41.6,30.05,East,90,0.0,0.0,57,0.00,,,0.00,WUHU216HW,2013-04-08 07:57:00,
2013-04-08 04:02:00,56.5,41.4,30.06,East,90,0.0,0.0,57,0.00,,,0.00,WUHU216HW,2013-04-08 08:02:00,
2013-04-08 04:07:00,56.2,41.0,30.05,ENE,68,0.0,0.0,57,0.00,,,0.00,WUHU216HW,2013-04-08 08:07:00,
2013-04-08 04:12:00,56.0,41.4,30.05,SSE,158,1.1,1.6,58,0.00,,,0.00,WUHU216HW,2013-04-08 08:12:00,
2013-04-08 04:17:00,55.8,41.2,30.05,SE,135,1.3,1.6,58,0.00,,,0.00,WUHU216HW,2013-04-08 08:17:00,
2013-04-08 04:22:00,55.8,41.7,30.06,SE,135,2.2,2.5,59,0.00,,,0.00,WUHU216HW,2013-04-08 08:22:00,
2013-04-08 04:27:00,55.8,42.1,30.06,SSE,158,2.0,2.7,60,0.00,,,0.00,WUHU216HW,2013-04-08 08:27:00,
2013-04-08 04:32:00,55.8,42.1,30.06,ESE,113,1.1,2.7,60,0.00,,,0.00,WUHU216HW,2013-04-08 08:32:00,
2013-04-08 04:37:00,56.0,42.3,30.06,ESE,113,1.1,2.0,60,0.00,,,0.00,WUHU216HW,2013-04-08 08:37:00,
2013-04-08 04:42:00,56.0,42.3,30.06,ESE,113,1.1,2.0,60,0.00,,,0.00,WUHU216HW,2013-04-08 08:42:00,
2013-04-08 04:47:00,55.8,42.1,30.06,East,90,1.3,1.6,60,0.00,,,0.00,WUHU216HW,2013-04-08 08:47:00,
2013-04-08 04:52:00,55.8,42.1,30.06,ESE,113,0.9,1.6,60,0.00,,,0.00,WUHU216HW,2013-04-08 08:52:00,
2013-04-08 04:57:00,55.8,42.1,30.06,East,90,0.7,1.3,60,0.00,,,0.00,WUHU216HW,2013-04-08 08:57:00,
2013-04-08 05:02:00,55.8,42.1,30.06,ENE,68,0.0,1.1,60,0.00,,,0.00,WUHU216HW,2013-04-08 09:02:00,
2013-04-08 05:07:00,56.0,42.3,30.06,ENE,68,0.0,0.9,60,0.00,,,0.00,WUHU216HW,2013-04-08 09:07:00,
2013-04-08 05:13:00,56.0,42.3,30.06,ENE,68,0.0,0.9,60,0.00,,,0.00,WUHU216HW,2013-04-08 09:13:00,
2013-04-08 05:18:00,55.8,42.1,30.06,ENE,68,0.0,0.2,60,0.00,,,0.00,WUHU216HW,2013-04-08 09:18:00,
2013-04-08 05:23:00,55.8,42.1,30.06,ESE,113,1.1,1.3,60,0.00,,,0.00,WUHU216HW,2013-04-08 09:23:00,
2013-04-08 05:28:00,55.8,42.6,30.06,ESE,113,0.9,1.3,61,0.00,,,0.00,WUHU216HW,2013-04-08 09:28:00,
2013-04-08 05:33:00,56.0,42.8,30.06,East,90,0.2,1.6,61,0.00,,,0.00,WUHU216HW,2013-04-08 09:33:00,
2013-04-08 05:38:00,56.0,42.8,30.06,ESE,113,0.0,1.6,61,0.00,,,0.00,WUHU216HW,2013-04-08 09:38:00,
2013-04-08 05:43:00,55.8,42.1,30.06,NNE,23,0.0,1.1,60,0.00,,,0.00,WUHU216HW,2013-04-08 09:43:00,
2013-04-08 05:48:00,55.8,42.6,30.06,NNE,23,0.0,0.2,61,0.00,,,0.00,WUHU216HW,2013-04-08 09:48:00,
2013-04-08 05:53:00,55.6,42.4,30.06,NNE,23,1.1,1.1,61,0.00,,,0.00,WUHU216HW,2013-04-08 09:53:00,
2013-04-08 05:58:00,55.4,42.2,30.06,NNE,23,0.0,1.1,61,0.00,,,0.00,WUHU216HW,2013-04-08 09:58:00,
2013-04-08 06:03:00,55.4,42.2,30.06,NNE,23,0.2,0.7,61,0.00,,,0.00,WUHU216HW,2013-04-08 10:03:00,
2013-04-08 06:08:00,55.3,42.4,30.07,NNE,23,0.7,1.1,62,0.00,,,0.00,WUHU216HW,2013-04-08 10:08:00,
2013-04-08 06:13:00,55.3,42.4,30.07,NNE,23,0.0,1.1,62,0.00,,,0.00,WUHU216HW,2013-04-08 10:13:00,
2013-04-08 06:18:00,55.3,42.4,30.07,NNE,23,0.0,0.9,62,0.00,,,0.00,WUHU216HW,2013-04-08 10:18:00,
2013-04-08 06:23:00,55.3,42.4,30.07,NNE,23,0.0,0.0,62,0.00,,,0.00,WUHU216HW,2013-04-08 10:23:00,
2013-04-08 06:28:00,55.3,42.4,30.07,NNE,23,0.0,0.0,62,0.00,,,0.00,WUHU216HW,2013-04-08 10:28:00,
2013-04-08 06:33:00,55.3,42.9,30.07,NNE,23,0.0,0.0,63,0.00,,,0.00,WUHU216HW,2013-04-08 10:33:00,
2013-04-08 06:38:00,55.3,42.9,30.08,NNE,23,0.0,0.0,63,0.00,,,0.00,WUHU216HW,2013-04-08 10:38:00,
2013-04-08 06:43:00,55.3,42.9,30.08,NNE,23,0.0,0.0,63,0.00,,,0.00,WUHU216HW,2013-04-08 10:43:00,
2013-04-08 06:48:00,55.3,42.9,30.08,NE,45,0.0,0.0,63,0.00,,,0.00,WUHU216HW,2013-04-08 10:48:00,
2013-04-08 06:53:00,55.4,43.0,30.08,SE,135,1.3,1.3,63,0.00,,,0.00,WUHU216HW,2013-04-08 10:53:00,
2013-04-08 06:58:00,55.4,43.0,30.08,ESE,113,0.4,1.8,63,0.00,,,0.00,WUHU216HW,2013-04-08 10:58:00,
2013-04-08 07:03:00,55.3,43.3,30.08,ESE,113,0.0,1.8,64,0.00,,,0.00,WUHU216HW,2013-04-08 11:03:00,
2013-04-08 07:08:00,55.1,43.1,30.08,East,90,0.4,0.9,64,0.00,,,0.00,WUHU216HW,2013-04-08 11:08:00,
2013-04-08 07:13:00,55.1,43.1,30.08,East,90,0.0,0.9,64,0.00,,,0.00,WUHU216HW,2013-04-08 11:13:00,
2013-04-08 07:18:00,55.1,43.1,30.08,East,90,0.0,0.9,64,0.00,,,0.00,WUHU216HW,2013-04-08 11:18:00,
2013-04-08 07:23:00,54.9,42.9,30.08,East,90,0.0,0.0,64,0.00,,,0.00,WUHU216HW,2013-04-08 11:23:00,
2013-04-08 07:28:00,54.9,42.9,30.09,ESE,113,0.0,0.7,64,0.00,,,0.00,WUHU216HW,2013-04-08 11:28:00,
2013-04-08 07:33:00,54.9,42.9,30.09,ESE,113,0.7,0.9,64,0.00,,,0.00,WUHU216HW,2013-04-08 11:33:00,
2013-04-08 07:38:00,54.7,42.8,30.09,ESE,113,1.8,2.2,64,0.00,,,0.00,WUHU216HW,2013-04-08 11:38:00,
2013-04-08 07:43:00,54.7,43.1,30.09,East,90,1.8,2.2,65,0.00,,,0.00,WUHU216HW,2013-04-08 11:43:00,
2013-04-08 07:48:00,54.5,43.0,30.09,ESE,113,1.8,2.2,65,0.00,,,0.00,WUHU216HW,2013-04-08 11:48:00,
2013-04-08 07:53:00,54.5,43.0,30.09,East,90,1.1,2.2,65,0.00,,,0.00,WUHU216HW,2013-04-08 11:53:00,
2013-04-08 07:58:00,54.4,42.9,30.09,East,90,1.1,2.2,65,0.00,,,0.00,WUHU216HW,2013-04-08 11:58:00,
2013-04-08 08:03:00,54.4,43.2,30.10,ESE,113,1.8,2.2,66,0.00,,,0.00,WUHU216HW,2013-04-08 12:03:00,
2013-04-08 08:08:00,54.4,43.2,30.10,ESE,113,1.8,2.2,66,0.00,,,0.00,WUHU216HW,2013-04-08 12:08:00,
2013-04-08 08:13:00,54.5,43.4,30.10,ENE,68,3.1,3.1,66,0.00,,,0.00,WUHU216HW,2013-04-08 12:13:00,
2013-04-08 08:18:00,54.7,43.6,30.10,East,90,1.6,3.1,66,0.00,,,0.00,WUHU216HW,2013-04-08 12:18:00,
2013-04-08 08:23:00,55.1,43.9,30.10,East,90,1.8,3.1,66,0.00,,,0.00,WUHU216HW,2013-04-08 12:23:00,
2013-04-08 08:28:00,55.3,44.1,30.10,East,90,1.3,2.5,66,0.00,,,0.00,WUHU216HW,2013-04-08 12:28:00,
2013-04-08 08:33:00,55.4,44.3,30.10,ESE,113,1.8,2.5,66,0.00,,,0.00,WUHU216HW,2013-04-08 12:33:00,
2013-04-08 08:38:00,55.8,44.6,30.10,ESE,113,2.0,2.0,66,0.00,,,0.00,WUHU216HW,2013-04-08 12:38:00,
2013-04-08 08:43:00,56.2,44.9,30.10,SE,135,0.9,2.2,66,0.00,,,0.00,WUHU216HW,2013-04-08 12:43:00,
2013-04-08 08:48:00,56.3,45.1,30.11,SSW,203,0.0,2.2,66,0.00,,,0.00,WUHU216HW,2013-04-08 12:48:00,
2013-04-08 08:53:00,56.7,45.0,30.10,SSE,158,1.8,2.0,65,0.00,,,0.00,WUHU216HW,2013-04-08 12:53:00,
2013-04-08 08:58:00,57.2,45.5,30.11,ESE,113,2.0,2.5,65,0.00,,,0.00,WUHU216HW,2013-04-08 12:58:00,
2013-04-08 09:03:00,57.6,45.5,30.10,ESE,113,2.2,3.1,64,0.00,,,0.00,WUHU216HW,2013-04-08 13:03:00,
2013-04-08 09:08:00,58.0,45.8,30.10,SE,135,2.5,3.8,64,0.00,,,0.00,WUHU216HW,2013-04-08 13:08:00,
2013-04-08 09:13:00,58.0,45.8,30.11,SE,135,1.3,3.8,64,0.00,,,0.00,WUHU216HW,2013-04-08 13:13:00,
2013-04-08 09:18:00,58.1,46.0,30.11,SSE,158,1.3,2.5,64,0.00,,,0.00,WUHU216HW,2013-04-08 13:18:00,
2013-04-08 09:23:00,58.5,46.4,30.11,ESE,113,2.5,2.7,64,0.00,,,0.00,WUHU216HW,2013-04-08 13:23:00,
2013-04-08 09:28:00,59.0,46.8,30.10,ESE,113,1.3,2.7,64,0.00,,,0.00,WUHU216HW,2013-04-08 13:28:00,
2013-04-08 09:33:00,59.4,47.2,30.11,ESE,113,1.3,2.5,64,0.00,,,0.00,WUHU216HW,2013-04-08 13:33:00,
2013-04-08 09:38:00,59.9,47.4,30.10,SE,135,2.2,2.5,63,0.00,,,0.00,WUHU216HW,2013-04-08 13:38:00,
2013-04-08 09:43:00,60.5,47.9,30.11,SSE,158,1.8,2.9,63,0.00,,,0.00,WUHU216HW,2013-04-08 13:43:00,
2013-04-08 09:48:00,60.8,48.3,30.11,East,90,0.0,2.9,63,0.00,,,0.00,WUHU216HW,2013-04-08 13:48:00,
2013-04-08 09:53:00,60.8,48.3,30.11,East,90,0.0,1.1,63,0.00,,,0.00,WUHU216HW,2013-04-08 13:53:00,
2013-04-08 11:16:00,65.9,50.7,30.11,NW,315,3.8,3.8,58,0.00,,,0.00,WUHU216HW,2013-04-08 15:16:00,
2013-04-08 11:21:00,66.2,51.0,30.11,WNW,293,1.8,4.0,58,0.00,,,0.00,WUHU216HW,2013-04-08 15:21:00,
2013-04-08 11:26:00,66.6,51.4,30.11,SW,225,2.0,4.0,58,0.00,,,0.00,WUHU216HW,2013-04-08 15:26:00,
2013-04-08 11:31:00,67.3,52.0,30.11,WSW,248,4.3,4.3,58,0.00,,,0.00,WUHU216HW,2013-04-08 15:31:00,
2013-04-08 11:37:00,67.9,52.5,30.11,West,270,3.8,4.5,58,0.00,,,0.00,WUHU216HW,2013-04-08 15:37:00,
2013-04-08 11:42:00,68.2,52.8,30.11,NNW,338,2.5,4.5,58,0.00,,,0.00,WUHU216HW,2013-04-08 15:42:00,
2013-04-08 11:47:00,68.6,52.8,30.11,NNW,338,4.5,4.5,57,0.00,,,0.00,WUHU216HW,2013-04-08 15:47:00,
2013-04-08 11:52:00,68.8,52.9,30.11,WNW,293,2.9,4.9,57,0.00,,,0.00,WUHU216HW,2013-04-08 15:52:00,
2013-04-08 11:57:00,69.3,53.4,30.11,NW,315,3.1,4.9,57,0.00,,,0.00,WUHU216HW,2013-04-08 15:57:00,
2013-04-08 12:02:00,69.5,52.6,30.11,WNW,293,3.1,4.7,55,0.00,,,0.00,WUHU216HW,2013-04-08 16:02:00,
2013-04-08 12:07:00,69.5,53.1,30.11,NW,315,4.0,4.7,56,0.00,,,0.00,WUHU216HW,2013-04-08 16:07:00,
2013-04-08 12:12:00,69.5,53.1,30.11,NW,315,4.7,5.1,56,0.00,,,0.00,WUHU216HW,2013-04-08 16:12:00,
2013-04-08 12:17:00,69.8,52.9,30.11,NW,315,3.1,5.4,55,0.00,,,0.00,WUHU216HW,2013-04-08 16:17:00,
2013-04-08 12:22:00,70.2,53.3,30.10,WNW,293,1.8,5.4,55,0.00,,,0.00,WUHU216HW,2013-04-08 16:22:00,
2013-04-08 12:27:00,70.9,53.9,30.10,NW,315,2.5,4.3,55,0.00,,,0.00,WUHU216HW,2013-04-08 16:27:00,
2013-04-08 12:32:00,71.3,54.2,30.10,North,0,0.7,4.3,55,0.00,,,0.00,WUHU216HW,2013-04-08 16:32:00,
2013-04-08 12:37:00,71.3,53.7,30.10,NNW,338,2.5,5.6,54,0.00,,,0.00,WUHU216HW,2013-04-08 16:37:00,
2013-04-08 12:42:00,71.5,53.9,30.10,West,270,3.8,5.6,54,0.00,,,0.00,WUHU216HW,2013-04-08 16:42:00,
2013-04-08 12:47:00,71.1,53.0,30.09,NW,315,2.9,4.7,53,0.00,,,0.00,WUHU216HW,2013-04-08 16:47:00,
2013-04-08 12:52:00,70.9,53.4,30.09,NW,315,1.3,4.7,54,0.00,,,0.00,WUHU216HW,2013-04-08 16:52:00,
2013-04-08 12:57:00,71.5,53.9,30.08,WNW,293,2.9,3.4,54,0.00,,,0.00,WUHU216HW,2013-04-08 16:57:00,
2013-04-08 13:02:00,72.7,54.6,30.08,WSW,248,3.6,4.0,53,0.00,,,0.00,WUHU216HW,2013-04-08 17:02:00,
2013-04-08 13:07:00,73.3,54.0,30.09,NW,315,2.7,6.5,51,0.00,,,0.00,WUHU216HW,2013-04-08 17:07:00,
2013-04-08 13:12:00,72.7,53.5,30.09,NNW,338,4.5,6.5,51,0.00,,,0.00,WUHU216HW,2013-04-08 17:12:00,
2013-04-08 13:17:00,71.8,53.2,30.08,NW,315,3.8,5.4,52,0.00,,,0.00,WUHU216HW,2013-04-08 17:17:00,
2013-04-08 13:22:00,71.5,53.4,30.08,NW,315,3.6,4.7,53,0.00,,,0.00,WUHU216HW,2013-04-08 17:22:00,
2013-04-08 13:28:00,71.8,54.2,30.08,West,270,1.8,6.0,54,0.00,,,0.00,WUHU216HW,2013-04-08 17:28:00,
2013-04-08 13:33:00,72.5,54.8,30.08,SSE,158,1.8,6.0,54,0.00,,,0.00,WUHU216HW,2013-04-08 17:33:00,
2013-04-08 13:38:00,73.4,54.6,30.08,NW,315,0.4,3.6,52,0.00,,,0.00,WUHU216HW,2013-04-08 17:38:00,
2013-04-08 13:43:00,73.4,54.2,30.08,WNW,293,4.3,4.5,51,0.00,,,0.00,WUHU216HW,2013-04-08 17:43:00,
2013-04-08 13:48:00,73.3,52.9,30.07,WNW,293,3.4,4.7,49,0.00,,,0.00,WUHU216HW,2013-04-08 17:48:00,
2013-04-08 13:53:00,73.8,53.4,30.07,WSW,248,4.0,5.6,49,0.00,,,0.00,WUHU216HW,2013-04-08 17:53:00,
2013-04-08 13:58:00,74.5,52.9,30.07,WNW,293,3.8,5.6,47,0.00,,,0.00,WUHU216HW,2013-04-08 17:58:00,
2013-04-08 14:03:00,74.7,53.1,30.06,WSW,248,4.0,5.8,47,0.00,,,0.00,WUHU216HW,2013-04-08 18:03:00,
2013-04-08 14:08:00,74.7,52.5,30.06,West,270,2.7,5.8,46,0.00,,,0.00,WUHU216HW,2013-04-08 18:08:00,
2013-04-08 14:13:00,74.7,52.5,30.06,WSW,248,4.7,6.0,46,0.00,,,0.00,WUHU216HW,2013-04-08 18:13:00,
2013-04-08 14:18:00,74.7,53.1,30.06,WSW,248,2.5,6.0,47,0.00,,,0.00,WUHU216HW,2013-04-08 18:18:00,
2013-04-08 14:23:00,75.4,53.2,30.06,NW,315,2.9,5.1,46,0.00,,,0.00,WUHU216HW,2013-04-08 18:23:00,
2013-04-08 14:28:00,76.3,53.4,30.06,SW,225,2.7,6.5,45,0.00,,,0.00,WUHU216HW,2013-04-08 18:28:00,
2013-04-08 14:33:00,76.9,52.7,30.06,SW,225,3.4,7.6,43,0.00,,,0.00,WUHU216HW,2013-04-08 18:33:00,
2013-04-08 14:38:00,77.0,52.2,30.06,WSW,248,4.7,7.6,42,0.00,,,0.00,WUHU216HW,2013-04-08 18:38:00,
2013-04-08 14:43:00,76.5,52.3,30.05,SSW,203,4.5,7.4,43,0.00,,,0.00,WUHU216HW,2013-04-08 18:43:00,
2013-04-08 14:48:00,75.8,52.3,30.05,WNW,293,4.7,5.4,44,0.00,,,0.00,WUHU216HW,2013-04-08 18:48:00,
2013-04-08 14:53:00,76.0,52.4,30.05,NW,315,6.5,6.5,44,0.00,,,0.00,WUHU216HW,2013-04-08 18:53:00,
2013-04-08 14:58:00,75.6,52.1,30.05,WSW,248,5.4,6.9,44,0.00,,,0.00,WUHU216HW,2013-04-08 18:58:00,
2013-04-08 15:03:00,75.4,52.6,30.06,West,270,4.7,9.6,45,0.00,,,0.00,WUHU216HW,2013-04-08 19:03:00,
2013-04-08 15:08:00,76.0,52.4,30.05,NW,315,5.4,9.6,44,0.00,,,0.00,WUHU216HW,2013-04-08 19:08:00,
2013-04-08 15:13:00,76.3,52.7,30.05,WNW,293,4.3,7.8,44,0.00,,,0.00,WUHU216HW,2013-04-08 19:13:00,
2013-04-08 15:18:00,76.3,52.7,30.05,NW,315,4.3,7.6,44,0.00,,,0.00,WUHU216HW,2013-04-08 19:18:00,
2013-04-08 15:23:00,76.1,51.9,30.04,WNW,293,6.3,7.6,43,0.00,,,0.00,WUHU216HW,2013-04-08 19:23:00,
2013-04-08 15:28:00,76.7,53.1,30.05,NNW,338,5.4,8.1,44,0.00,,,0.00,WUHU216HW,2013-04-08 19:28:00,
2013-04-08 15:33:00,76.7,52.5,30.04,WNW,293,6.7,8.1,43,0.00,,,0.00,WUHU216HW,2013-04-08 19:33:00,
2013-04-08 15:38:00,76.3,52.1,30.04,NW,315,4.7,7.2,43,0.00,,,0.00,WUHU216HW,2013-04-08 19:38:00,
2013-04-08 15:43:00,76.7,52.5,30.04,NW,315,4.7,7.2,43,0.00,,,0.00,WUHU216HW,2013-04-08 19:43:00,
2013-04-08 15:48:00,76.9,52.0,30.04,West,270,6.7,6.7,42,0.00,,,0.00,WUHU216HW,2013-04-08 19:48:00,
2013-04-08 15:53:00,76.7,51.8,30.04,NW,315,6.0,6.7,42,0.00,,,0.00,WUHU216HW,2013-04-08 19:53:00,
2013-04-08 15:58:00,76.7,51.8,30.04,WSW,248,3.4,7.6,42,0.00,,,0.00,WUHU216HW,2013-04-08 19:58:00,
2013-04-08 16:03:00,77.0,51.6,30.04,NW,315,6.3,7.6,41,0.00,,,0.00,WUHU216HW,2013-04-08 20:03:00,
2013-04-08 16:08:00,77.4,51.8,30.04,WNW,293,7.6,10.7,41,0.00,,,0.00,WUHU216HW,2013-04-08 20:08:00,
2013-04-08 16:13:00,76.9,52.0,30.03,NNW,338,4.7,10.7,42,0.00,,,0.00,WUHU216HW,2013-04-08 20:13:00,
2013-04-08 16:18:00,77.0,51.6,30.03,WSW,248,4.7,7.6,41,0.00,,,0.00,WUHU216HW,2013-04-08 20:18:00,
2013-04-08 16:23:00,77.0,51.6,30.03,WNW,293,5.4,7.4,41,0.00,,,0.00,WUHU216HW,2013-04-08 20:23:00,
2013-04-08 16:28:00,76.5,51.0,30.03,NW,315,6.3,7.6,41,0.00,,,0.00,WUHU216HW,2013-04-08 20:28:00,
2013-04-08 16:33:00,76.1,52.6,30.03,NW,315,7.6,7.6,44,0.00,,,0.00,WUHU216HW,2013-04-08 20:33:00,
2013-04-08 16:38:00,76.0,51.9,30.03,WNW,293,5.8,7.6,43,0.00,,,0.00,WUHU216HW,2013-04-08 20:38:00,
2013-04-08 16:43:00,76.0,51.2,30.03,West,270,4.7,7.6,42,0.00,,,0.00,WUHU216HW,2013-04-08 20:43:00,
2013-04-08 16:48:00,76.3,52.1,30.03,West,270,4.3,6.3,43,0.00,,,0.00,WUHU216HW,2013-04-08 20:48:00,
2013-04-08 16:53:00,76.7,51.8,30.03,NW,315,6.3,6.9,42,0.00,,,0.00,WUHU216HW,2013-04-08 20:53:00,
2013-04-08 16:58:00,76.7,51.2,30.03,NW,315,7.6,8.1,41,0.00,,,0.00,WUHU216HW,2013-04-08 20:58:00,
2013-04-08 17:03:00,76.1,51.4,30.03,WNW,293,3.8,8.1,42,0.00,,,0.00,WUHU216HW,2013-04-08 21:03:00,
2013-04-08 17:08:00,76.0,51.2,30.03,WSW,248,4.9,7.6,42,0.00,,,0.00,WUHU216HW,2013-04-08 21:08:00,
2013-04-08 17:13:00,75.4,51.3,30.03,WNW,293,4.0,6.9,43,0.00,,,0.00,WUHU216HW,2013-04-08 21:13:00,
2013-04-08 17:18:00,75.2,50.6,30.03,NW,315,6.3,6.3,42,0.00,,,0.00,WUHU216HW,2013-04-08 21:18:00,
2013-04-08 17:23:00,75.1,50.4,30.03,West,270,3.4,7.6,42,0.00,,,0.00,WUHU216HW,2013-04-08 21:23:00,
2013-04-08 17:28:00,75.1,51.0,30.03,West,270,2.7,7.6,43,0.00,,,0.00,WUHU216HW,2013-04-08 21:28:00,
2013-04-08 17:33:00,75.1,51.0,30.03,North,0,4.3,7.4,43,0.00,,,0.00,WUHU216HW,2013-04-08 21:33:00,
2013-04-08 17:38:00,75.2,51.8,30.03,NNW,338,5.1,7.4,44,0.00,,,0.00,WUHU216HW,2013-04-08 21:38:00,
2013-04-08 17:43:00,75.2,51.1,30.03,WNW,293,4.0,6.7,43,0.00,,,0.00,WUHU216HW,2013-04-08 21:43:00,
2013-04-08 17:48:00,75.1,51.6,30.03,West,270,4.0,6.7,44,0.00,,,0.00,WUHU216HW,2013-04-08 21:48:00,
2013-04-08 17:53:00,74.7,50.7,30.03,West,270,3.4,6.7,43,0.00,,,0.00,WUHU216HW,2013-04-08 21:53:00,
2013-04-08 17:58:00,74.5,51.1,30.03,West,270,3.8,6.7,44,0.00,,,0.00,WUHU216HW,2013-04-08 21:58:00,
2013-04-08 18:03:00,74.3,51.0,30.03,West,270,3.4,5.8,44,0.00,,,0.00,WUHU216HW,2013-04-08 22:03:00,
2013-04-08 18:08:00,74.5,51.1,30.03,West,270,2.2,5.4,44,0.00,,,0.00,WUHU216HW,2013-04-08 22:08:00,
2013-04-08 18:13:00,74.3,51.0,30.03,WSW,248,3.4,5.4,44,0.00,,,0.00,WUHU216HW,2013-04-08 22:13:00,
2013-04-08 18:18:00,74.3,51.0,30.03,WSW,248,2.7,5.4,44,0.00,,,0.00,WUHU216HW,2013-04-08 22:18:00,
2013-04-08 18:23:00,74.3,51.0,30.03,West,270,3.1,4.7,44,0.00,,,0.00,WUHU216HW,2013-04-08 22:23:00,
2013-04-08 18:28:00,74.3,51.6,30.03,WSW,248,2.5,4.7,45,0.00,,,0.00,WUHU216HW,2013-04-08 22:28:00,
2013-04-08 18:33:00,74.3,51.6,30.03,West,270,1.1,3.1,45,0.00,,,0.00,WUHU216HW,2013-04-08 22:33:00,
2013-04-08 18:38:00,74.2,51.4,30.04,WSW,248,3.8,4.3,45,0.00,,,0.00,WUHU216HW,2013-04-08 22:38:00,
2013-04-08 18:43:00,73.8,51.0,30.03,WSW,248,2.2,4.3,45,0.00,,,0.00,WUHU216HW,2013-04-08 22:43:00,
2013-04-08 18:48:00,73.4,51.3,30.04,WNW,293,5.1,5.1,46,0.00,,,0.00,WUHU216HW,2013-04-08 22:48:00,
2013-04-08 18:53:00,73.1,50.9,30.03,West,270,2.9,5.1,46,0.00,,,0.00,WUHU216HW,2013-04-08 22:53:00,
2013-04-08 18:58:00,72.9,51.4,30.04,West,270,1.8,5.1,47,0.00,,,0.00,WUHU216HW,2013-04-08 22:58:00,
2013-04-08 19:03:00,72.7,51.2,30.03,SW,225,2.0,4.0,47,0.00,,,0.00,WUHU216HW,2013-04-08 23:03:00,
2013-04-08 19:08:00,72.5,51.0,30.04,NNW,338,3.1,4.0,47,0.00,,,0.00,WUHU216HW,2013-04-08 23:08:00,
2013-04-08 19:13:00,72.4,50.9,30.03,West,270,2.2,3.8,47,0.00,,,0.00,WUHU216HW,2013-04-08 23:13:00,
2013-04-08 19:18:00,72.4,50.9,30.03,WNW,293,1.3,3.1,47,0.00,,,0.00,WUHU216HW,2013-04-08 23:18:00,
2013-04-08 19:23:00,72.2,50.8,30.03,WNW,293,2.0,2.5,47,0.00,,,0.00,WUHU216HW,2013-04-08 23:23:00,
2013-04-08 19:28:00,72.0,51.1,30.03,WSW,248,1.8,2.5,48,0.00,,,0.00,WUHU216HW,2013-04-08 23:28:00,
2013-04-08 19:33:00,71.8,51.0,30.03,WSW,248,1.3,2.9,48,0.00,,,0.00,WUHU216HW,2013-04-08 23:33:00,
2013-04-08 19:38:00,71.6,50.9,30.02,West,270,1.6,3.4,48,0.00,,,0.00,WUHU216HW,2013-04-08 23:38:00,
2013-04-08 19:43:00,71.6,50.9,30.03,WSW,248,2.0,3.4,48,0.00,,,0.00,WUHU216HW,2013-04-08 23:43:00,
2013-04-08 19:48:00,71.5,50.7,30.02,SSE,158,1.6,2.9,48,0.00,,,0.00,WUHU216HW,2013-04-08 23:48:00,
2013-04-08 19:53:00,71.3,51.1,30.03,SSW,203,0.0,2.5,49,0.00,,,0.00,WUHU216HW,2013-04-08 23:53:00,
2013-04-08 19:58:00,71.3,51.1,30.03,SW,225,0.4,1.6,49,0.00,,,0.00,WUHU216HW,2013-04-08 23:58:00,
2013-04-08 20:03:00,70.9,50.8,30.03,SW,225,0.0,0.7,49,0.00,,,0.00,WUHU216HW,2013-04-09 00:03:00,
2013-04-08 20:08:00,70.9,50.8,30.03,SSW,203,0.0,0.4,49,0.00,,,0.00,WUHU216HW,2013-04-09 00:08:00,
2013-04-08 20:13:00,70.7,50.6,30.03,SW,225,0.0,0.7,49,0.00,,,0.00,WUHU216HW,2013-04-09 00:13:00,
2013-04-08 20:18:00,70.6,50.5,30.03,SW,225,0.0,0.7,49,0.00,,,0.00,WUHU216HW,2013-04-09 00:18:00,
2013-04-08 20:23:00,70.4,50.9,30.03,SSE,158,1.1,1.8,50,0.00,,,0.00,WUHU216HW,2013-04-09 00:23:00,
2013-04-08 20:28:00,70.2,50.8,30.03,South,180,0.4,1.8,50,0.00,,,0.00,WUHU216HW,2013-04-09 00:28:00,
2013-04-08 20:33:00,70.0,50.6,30.03,South,180,0.9,1.3,50,0.00,,,0.00,WUHU216HW,2013-04-09 00:33:00,
2013-04-08 20:38:00,69.8,51.0,30.03,SSE,158,0.4,1.3,51,0.00,,,0.00,WUHU216HW,2013-04-09 00:38:00,
2013-04-08 20:43:00,69.7,50.8,30.03,WSW,248,0.7,1.3,51,0.00,,,0.00,WUHU216HW,2013-04-09 00:43:00,
2013-04-08 20:48:00,69.7,50.8,30.04,SW,225,0.9,1.1,51,0.00,,,0.00,WUHU216HW,2013-04-09 00:48:00,
2013-04-08 20:53:00,69.5,50.6,30.04,SW,225,0.0,1.1,51,0.00,,,0.00,WUHU216HW,2013-04-09 00:53:00,
2013-04-08 20:58:00,69.5,50.0,30.04,SSW,203,1.6,1.6,50,0.00,,,0.00,WUHU216HW,2013-04-09 00:58:00,
2013-04-08 21:03:00,69.3,50.0,30.03,SSE,158,1.1,1.8,50,0.00,,,0.00,WUHU216HW,2013-04-09 01:03:00,
2013-04-08 21:08:00,69.3,50.4,30.03,SW,225,0.0,2.2,51,0.00,,,0.00,WUHU216HW,2013-04-09 01:08:00,
2013-04-08 21:13:00,69.1,50.2,30.04,WSW,248,0.9,2.2,51,0.00,,,0.00,WUHU216HW,2013-04-09 01:13:00,
2013-04-08 21:18:00,68.9,50.1,30.04,SSW,203,1.3,1.8,51,0.00,,,0.00,WUHU216HW,2013-04-09 01:18:00,
2013-04-08 21:23:00,68.9,50.1,30.04,SSW,203,0.4,1.8,51,0.00,,,0.00,WUHU216HW,2013-04-09 01:23:00,
2013-04-08 21:28:00,68.9,50.6,30.04,South,180,0.9,1.1,52,0.00,,,0.00,WUHU216HW,2013-04-09 01:28:00,
2013-04-08 21:33:00,68.8,50.4,30.04,SW,225,0.4,1.3,52,0.00,,,0.00,WUHU216HW,2013-04-09 01:33:00,
2013-04-08 21:38:00,68.8,50.4,30.05,SW,225,0.4,1.3,52,0.00,,,0.00,WUHU216HW,2013-04-09 01:38:00,
2013-04-08 21:43:00,68.6,50.2,30.05,SSE,158,1.1,1.6,52,0.00,,,0.00,WUHU216HW,2013-04-09 01:43:00,
2013-04-08 21:48:00,68.6,50.2,30.05,SSW,203,0.9,1.6,52,0.00,,,0.00,WUHU216HW,2013-04-09 01:48:00,
2013-04-08 21:53:00,68.6,50.2,30.05,SW,225,0.4,1.3,52,0.00,,,0.00,WUHU216HW,2013-04-09 01:53:00,
2013-04-08 21:58:00,68.4,50.0,30.05,SW,225,0.7,1.1,52,0.00,,,0.00,WUHU216HW,2013-04-09 01:58:00,
2013-04-08 22:03:00,68.4,50.0,30.05,SSW,203,0.0,1.1,52,0.00,,,0.00,WUHU216HW,2013-04-09 02:03:00,
2013-04-08 22:08:00,68.2,50.0,30.05,SSW,203,0.0,0.9,52,0.00,,,0.00,WUHU216HW,2013-04-09 02:08:00,
2013-04-08 22:13:00,68.0,49.8,30.05,SSW,203,0.0,0.0,52,0.00,,,0.00,WUHU216HW,2013-04-09 02:13:00,
2013-04-08 22:18:00,67.9,49.6,30.05,SSW,203,0.0,0.0,52,0.00,,,0.00,WUHU216HW,2013-04-09 02:18:00,
2013-04-08 22:23:00,67.5,49.8,30.06,SE,135,0.4,0.4,53,0.00,,,0.00,WUHU216HW,2013-04-09 02:23:00,
2013-04-08 22:29:00,67.3,49.6,30.06,South,180,0.4,1.1,53,0.00,,,0.00,WUHU216HW,2013-04-09 02:29:00,
2013-04-08 22:34:00,67.3,49.6,30.06,SSW,203,0.0,1.1,53,0.00,,,0.00,WUHU216HW,2013-04-09 02:34:00,
2013-04-08 22:39:00,67.1,49.4,30.06,SSW,203,0.0,0.4,53,0.00,,,0.00,WUHU216HW,2013-04-09 02:39:00,
2013-04-08 22:44:00,67.0,49.2,30.06,SSE,158,0.0,0.0,53,0.00,,,0.00,WUHU216HW,2013-04-09 02:44:00,
2013-04-08 22:49:00,66.8,49.6,30.06,SE,135,0.0,0.0,54,0.00,,,0.00,WUHU216HW,2013-04-09 02:49:00,
2013-04-08 22:55:00,66.6,49.4,30.06,ESE,113,0.7,0.7,54,0.00,,,0.00,WUHU216HW,2013-04-09 02:55:00,
2013-04-08 23:00:00,66.2,49.6,30.06,ESE,113,0.2,0.7,55,0.00,,,0.00,WUHU216HW,2013-04-09 03:00:00,
2013-04-08 23:05:00,66.1,49.4,30.06,ESE,113,0.0,0.7,55,0.00,,,0.00,WUHU216HW,2013-04-09 03:05:00,
2013-04-08 23:10:00,65.9,49.2,30.06,ESE,113,0.0,0.7,55,0.00,,,0.00,WUHU216HW,2013-04-09 03:10:00,
2013-04-08 23:15:00,65.7,49.5,30.06,ESE,113,0.0,0.0,56,0.00,,,0.00,WUHU216HW,2013-04-09 03:15:00,
2013-04-08 23:20:00,65.7,49.5,30.06,SE,135,0.7,1.1,56,0.00,,,0.00,WUHU216HW,2013-04-09 03:20:00,
2013-04-08 23:25:00,65.5,49.3,30.06,SE,135,1.1,1.1,56,0.00,,,0.00,WUHU216HW,2013-04-09 03:25:00,
2013-04-08 23:30:00,65.3,49.1,30.07,ESE,113,1.3,1.3,56,0.00,,,0.00,WUHU216HW,2013-04-09 03:30:00,
2013-04-08 23:35:00,65.2,49.5,30.07,ESE,113,1.6,1.8,57,0.00,,,0.00,WUHU216HW,2013-04-09 03:35:00,
2013-04-08 23:40:00,65.0,49.3,30.07,SE,135,1.3,2.0,57,0.00,,,0.00,WUHU216HW,2013-04-09 03:40:00,
2013-04-08 23:45:00,64.8,49.2,30.07,ESE,113,1.1,2.0,57,0.00,,,0.00,WUHU216HW,2013-04-09 03:45:00,
2013-04-08 23:50:00,64.8,49.2,30.07,East,90,0.9,1.3,57,0.00,,,0.00,WUHU216HW,2013-04-09 03:50:00,
2013-04-08 23:55:00,64.6,49.4,30.07,ESE,113,0.0,1.1,58,0.00,,,0.00,WUHU216HW,2013-04-09 03:55:00,